Weather Roundup
Issued by NWS Chicago, IL

Home | Current Version | Previous Version | Graphics & Text | Print | Product List | Glossary On
Versions: 1 2 3 4 5 6 7 8 9 10 11 12 13 14 15 16 17 18 19 20 21 22 23 24 25 26 27 28 29 30 31 32 33 34 35 36 37 38 39 40 41 42 43 44 45 46 47 48 49 50
000
NZUS59 KLOT 250410
HRRLOT

CHICAGO AREA WEATHER ROUNDUP
NATIONAL WEATHER SERVICE CHICAGO/ROMEOVILLE IL
1100 PM CDT FRI OCT 24 2014

NOTE: "FAIR" INDICATES FEW OR NO CLOUDS BELOW 12,000 FEET WITH NO
SIGNIFICANT WEATHER AND/OR OBSTRUCTIONS TO VISIBILITY.

* THESE STATIONS ARE NOT UNDER NWS QUALITY CONTROL. THEY ALSO MAY NOT
  REPORT WEATHER SUCH AS PRECIPITATION OR FOG.

ILZ005-006-012>014-019>023-250500-
NORTHEAST ILLINOIS

CITY           SKY/WX    TMP DP  RH WIND       PRES   REMARKS
OHARE          CLOUDY    61  47  59 SW8       29.93F
MIDWAY         CLOUDY    63  49  60 SW8       29.94S
AURORA         MOCLDY    57  48  72 SW7       29.94F
LANSING*       CLOUDY    58  49  71 SW10      29.95S
JOLIET*        CLOUDY    57  52  82 S5        29.94F
WAUKEGAN       CLOUDY    54  52  93 CALM      29.92F FOG
DUPAGE AIRPORT CLOUDY    59  49  69 SW9       29.93F
WHEELING       CLOUDY    63  45  51 SW3       29.95F
KANKAKEE*      CLOUDY    58  54  87 SW9       29.97S
MORRIS*        MOCLDY    56  54  91 S3        29.93F
LEWIS AIRPORT* CLOUDY    59  51  74 SW7       29.95F
NORTHERLY IS     N/A     62  47  57 SW8         N/A
$$

WIZ051-052-058>065-066-070>072-250500-
SOUTHEAST WISCONSIN

CITY           SKY/WX    TMP DP  RH WIND       PRES   REMARKS
MILWAUKEE      CLOUDY    56  50  80 S7        29.91F
KENOSHA*       CLOUDY    55  51  86 SW3       29.92F FOG
RACINE*        CLOUDY    55  51  86 S5        29.93F FOG
BURLINGTON     CLOUDY    52  51  96 CALM      29.92S
WAUKESHA       CLOUDY    54  50  87 S6        29.92S
WEST BEND      CLOUDY    57  46  67 S8        29.88F
$$

INZ001>003-010>013-019-020-250500-
NORTHWEST INDIANA

CITY           SKY/WX    TMP DP  RH WIND       PRES   REMARKS
GARY*          CLOUDY    61  48  63 SW7       29.95S
MICHIGAN CITY* NOT AVBL
RENSSELAER*    NOT AVBL
VALPARAISO     MOCLDY    54  46  74 S3        29.96F
$$

LMZ740>746-250500-
SOUTHERN LAKE MICHIGAN

STATION/POSITION TIME  SKY/WX   TEMP WIND        PRES    VSBY
                                AIR  DIR/SP/G
                 (UTC)          (F)  (DEG/KT/KT) (MB)    (MI)
HARRISON CRIB    0300            61  190/ 10/ 11   N/A
BURNHAM HARBOR   0400            62  200/  7/ 13   N/A
CALUMET HARBOR   0400            61  220/  5/ 10 1012.7F
BURNS HARBOR     NOT AVBL
MICHIGAN CITY    0400            58  150/  9/ 12   N/A
$$

ABBREVIATIONS USED IN REMARKS
   TC - TEMPERATURE IN CELSIUS
  WCI - WIND CHILL INDEX
   HX - HEAT INDEX
  VSB - VISIBILITY
$$



USA.gov is the U.S. government's official web portal to all federal, state and local government web resources and services.